SWA2092 KDAL-KOKC

Flight info

Callsign SWA2092
Flight time 0h 41m
Altitude 24000
Route ESNYE7 ZEMMA TSDEL3
Aircraft B738/M-SADE2E3GIJ4RWZ/LB1D1

Departure

Time 2026-04-20 01:20
Airport Dallas Love Field (KDAL)

Arrival

Time 2026-04-20 02:01
Airport OKC Will Rogers World Airport (KOKC)
Time Latitude Longitude Altitude Speed Heading
2026-04-20 00:58 32.84564 -96.85193 476 ft 0 kts 33°
2026-04-20 01:11 32.84563 -96.85194 492 ft 1 kts 33°
2026-04-20 01:11 32.84543 -96.85210 478 ft 4 kts 36°
2026-04-20 01:12 32.84522 -96.85226 475 ft 4 kts
2026-04-20 01:12 32.84514 -96.85231 479 ft 1 kts 271°
2026-04-20 01:12 32.84514 -96.85230 479 ft 0 kts 270°
2026-04-20 01:15 32.84514 -96.85288 482 ft 16 kts 275°
2026-04-20 01:15 32.84655 -96.85330 478 ft 30 kts
2026-04-20 01:15 32.84866 -96.85299 476 ft 30 kts 14°
2026-04-20 01:15 32.85064 -96.85244 481 ft 28 kts 355°
2026-04-20 01:16 32.85215 -96.85378 483 ft 27 kts 319°
2026-04-20 01:16 32.85352 -96.85512 483 ft 25 kts 314°
2026-04-20 01:16 32.85470 -96.85651 483 ft 23 kts 316°
2026-04-20 01:16 32.85586 -96.85777 483 ft 22 kts 330°
2026-04-20 01:17 32.85659 -96.85744 481 ft 0 kts 46°
2026-04-20 01:19 32.85686 -96.85711 478 ft 16 kts 51°
2026-04-20 01:19 32.85658 -96.85597 485 ft 16 kts 136°
2026-04-20 01:19 32.85474 -96.85385 487 ft 74 kts 136°
2026-04-20 01:20 32.84918 -96.84741 489 ft 147 kts 136°
2026-04-20 01:20 32.84099 -96.83796 939 ft 175 kts 135°
2026-04-20 01:20 32.83187 -96.82767 1800 ft 184 kts 136°
2026-04-20 01:20 32.82243 -96.81687 2493 ft 199 kts 136°
2026-04-20 01:21 32.81188 -96.80468 2705 ft 224 kts 136°
2026-04-20 01:21 32.80029 -96.79121 3197 ft 239 kts 136°
2026-04-20 01:21 32.78828 -96.77724 3994 ft 243 kts 136°
2026-04-20 01:21 32.77630 -96.76321 4669 ft 242 kts 136°
2026-04-20 01:22 32.76437 -96.74914 4979 ft 242 kts 136°
2026-04-20 01:22 32.75245 -96.73498 4964 ft 242 kts 135°
2026-04-20 01:22 32.74057 -96.72087 4972 ft 242 kts 135°
2026-04-20 01:22 32.72938 -96.70602 4962 ft 242 kts 124°
2026-04-20 01:23 32.72428 -96.68704 5000 ft 248 kts 94°
2026-04-20 01:23 32.72846 -96.66647 5227 ft 269 kts 64°
2026-04-20 01:23 32.73871 -96.64692 5742 ft 283 kts 58°
2026-04-20 01:23 32.75206 -96.62998 6740 ft 286 kts 36°
2026-04-20 01:24 32.77067 -96.62173 7481 ft 290 kts
2026-04-20 01:24 32.79009 -96.62553 7844 ft 289 kts 333°
2026-04-20 01:24 32.80643 -96.63936 8005 ft 293 kts 319°
2026-04-20 01:24 32.82187 -96.65515 7997 ft 291 kts 318°
2026-04-20 01:25 32.83763 -96.67008 7992 ft 288 kts 322°
2026-04-20 01:25 32.85389 -96.68372 8221 ft 286 kts 324°
2026-04-20 01:25 32.87069 -96.69690 8643 ft 292 kts 326°
2026-04-20 01:25 32.88786 -96.70984 9615 ft 291 kts 327°
2026-04-20 01:26 32.90507 -96.72248 10559 ft 294 kts 327°
2026-04-20 01:26 32.92324 -96.73565 10834 ft 320 kts 328°
2026-04-20 01:26 32.94308 -96.74989 11025 ft 345 kts 328°
2026-04-20 01:26 32.96432 -96.76502 11291 ft 364 kts 328°
2026-04-20 01:27 32.98629 -96.78058 11988 ft 369 kts 328°
2026-04-20 01:27 33.00838 -96.79613 12861 ft 369 kts 328°
2026-04-20 01:27 33.03047 -96.81165 13728 ft 370 kts 328°
2026-04-20 01:27 33.05273 -96.82730 14512 ft 373 kts 328°
2026-04-20 01:28 33.07513 -96.84305 15276 ft 375 kts 328°
2026-04-20 01:28 33.09764 -96.85890 16050 ft 377 kts 327°
2026-04-20 01:28 33.12030 -96.87486 16801 ft 380 kts 327°
2026-04-20 01:28 33.14313 -96.89097 17562 ft 382 kts 327°
2026-04-20 01:29 33.16611 -96.90720 18300 ft 385 kts 327°
2026-04-20 01:29 33.18926 -96.92355 18947 ft 388 kts 326°
2026-04-20 01:29 33.21259 -96.94005 19558 ft 391 kts 326°
2026-04-20 01:29 33.23604 -96.95664 20177 ft 394 kts 326°
2026-04-20 01:30 33.25970 -96.97340 20789 ft 396 kts 326°
2026-04-20 01:30 33.28346 -96.99023 21400 ft 399 kts 326°
2026-04-20 01:30 33.30738 -97.00718 21990 ft 401 kts 326°
2026-04-20 01:30 33.33150 -97.02429 22551 ft 404 kts 326°
2026-04-20 01:31 33.35579 -97.04154 23085 ft 408 kts 326°
2026-04-20 01:31 33.38023 -97.05889 23625 ft 410 kts 325°
2026-04-20 01:31 33.40456 -97.07618 24103 ft 413 kts 325°
2026-04-20 01:31 33.43070 -97.09211 24233 ft 425 kts 336°
2026-04-20 01:32 33.46000 -97.09948 24346 ft 436 kts 347°
2026-04-20 01:32 33.49047 -97.10320 24323 ft 441 kts 351°
2026-04-20 01:32 33.52113 -97.10358 24312 ft 440 kts 356°
2026-04-20 01:32 33.55169 -97.10128 24323 ft 439 kts 359°
2026-04-20 01:33 33.58211 -97.09710 24318 ft 440 kts
2026-04-20 01:33 33.61239 -97.09191 24317 ft 441 kts
2026-04-20 01:33 33.64236 -97.08670 24319 ft 442 kts
2026-04-20 01:33 33.67323 -97.08172 24314 ft 443 kts
2026-04-20 01:34 33.70345 -97.07727 24309 ft 443 kts
2026-04-20 01:34 33.73414 -97.07309 24316 ft 444 kts
2026-04-20 01:34 33.76490 -97.06911 24317 ft 445 kts
2026-04-20 01:34 33.79569 -97.06524 24298 ft 446 kts
2026-04-20 01:35 33.82652 -97.06137 24307 ft 445 kts
2026-04-20 01:35 33.85730 -97.05750 24298 ft 445 kts
2026-04-20 01:35 33.88808 -97.05361 24294 ft 444 kts
2026-04-20 01:35 33.91881 -97.04970 24296 ft 444 kts
2026-04-20 01:36 33.94948 -97.04578 24294 ft 443 kts
2026-04-20 01:36 33.98010 -97.04187 24297 ft 443 kts
2026-04-20 01:36 34.01063 -97.03795 24290 ft 439 kts
2026-04-20 01:36 34.04080 -97.03407 24272 ft 434 kts
2026-04-20 01:37 34.06111 -97.03147 24122 ft 435 kts
2026-04-20 01:37 34.09115 -97.02763 23886 ft 432 kts
2026-04-20 01:37 34.12102 -97.02380 23630 ft 430 kts
2026-04-20 01:37 34.15073 -97.01999 23273 ft 426 kts
2026-04-20 01:38 34.18011 -97.01621 22545 ft 422 kts
2026-04-20 01:38 34.20902 -97.01248 21865 ft 416 kts
2026-04-20 01:38 34.23727 -97.00885 21215 ft 411 kts
2026-04-20 01:38 34.26553 -97.00523 20555 ft 406 kts
2026-04-20 01:39 34.29351 -97.00164 19934 ft 402 kts
2026-04-20 01:39 34.32096 -96.99809 19721 ft 388 kts
2026-04-20 01:39 34.34735 -96.99465 19484 ft 375 kts
2026-04-20 01:39 34.37283 -96.99191 19341 ft 359 kts 356°
2026-04-20 01:40 34.39659 -96.99685 18950 ft 342 kts 331°
2026-04-20 01:40 34.41695 -97.01063 18653 ft 334 kts 326°
2026-04-20 01:40 34.43696 -97.02525 18210 ft 335 kts 326°
2026-04-20 01:40 34.45736 -97.03880 17768 ft 335 kts 329°
2026-04-20 01:41 34.47806 -97.05155 17364 ft 333 kts 330°
2026-04-20 01:41 34.49870 -97.06415 16962 ft 331 kts 330°
2026-04-20 01:41 34.51919 -97.07680 16552 ft 330 kts 330°
2026-04-20 01:41 34.53962 -97.08958 16159 ft 330 kts 330°
2026-04-20 01:42 34.55996 -97.10244 15758 ft 330 kts 330°
2026-04-20 01:42 34.58033 -97.11540 15369 ft 331 kts 330°
2026-04-20 01:42 34.60070 -97.12841 14970 ft 331 kts 330°
2026-04-20 01:42 34.62126 -97.14159 14351 ft 339 kts 330°
2026-04-20 01:43 34.64211 -97.15497 13870 ft 339 kts 330°
2026-04-20 01:43 34.66290 -97.16829 13422 ft 335 kts 330°
2026-04-20 01:43 34.68340 -97.18144 12995 ft 331 kts 330°
2026-04-20 01:43 34.70359 -97.19440 12587 ft 327 kts 330°
2026-04-20 01:44 34.72360 -97.20725 12192 ft 323 kts 330°
2026-04-20 01:44 34.74335 -97.21995 11801 ft 320 kts 330°
2026-04-20 01:44 34.76293 -97.23254 11418 ft 317 kts 330°
2026-04-20 01:44 34.78230 -97.24503 11058 ft 314 kts 330°
2026-04-20 01:45 34.80083 -97.25785 11048 ft 298 kts 327°
2026-04-20 01:45 34.81805 -97.27089 10896 ft 288 kts 326°
2026-04-20 01:45 34.83495 -97.28397 10650 ft 284 kts 326°
2026-04-20 01:45 34.85162 -97.29672 10429 ft 281 kts 326°
2026-04-20 01:46 34.86814 -97.30920 10285 ft 279 kts 326°
2026-04-20 01:46 34.88471 -97.32165 10137 ft 280 kts 326°
2026-04-20 01:46 34.90131 -97.33412 9973 ft 281 kts 326°
2026-04-20 01:46 34.91787 -97.34669 9852 ft 280 kts 326°
2026-04-20 01:47 34.93439 -97.35926 9724 ft 280 kts 326°
2026-04-20 01:47 34.95088 -97.37183 9594 ft 279 kts 326°
2026-04-20 01:47 34.96735 -97.38438 9470 ft 279 kts 326°
2026-04-20 01:47 34.98378 -97.39691 9344 ft 278 kts 326°
2026-04-20 01:48 35.00017 -97.40940 9216 ft 278 kts 326°
2026-04-20 01:48 35.01669 -97.42201 9086 ft 282 kts 326°
2026-04-20 01:48 35.03319 -97.43459 8976 ft 284 kts 326°
2026-04-20 01:48 35.04997 -97.44740 8844 ft 284 kts 326°
2026-04-20 01:49 35.06668 -97.46009 8718 ft 283 kts 327°
2026-04-20 01:49 35.08534 -97.46783 8539 ft 289 kts 354°
2026-04-20 01:49 35.10527 -97.46828 8483 ft 287 kts 358°
2026-04-20 01:49 35.12524 -97.46878 8344 ft 287 kts 355°
2026-04-20 01:50 35.14518 -97.47039 8215 ft 288 kts 354°
2026-04-20 01:50 35.16523 -97.47208 8071 ft 290 kts 354°
2026-04-20 01:50 35.18537 -97.47364 7926 ft 290 kts 354°
2026-04-20 01:50 35.20562 -97.47506 7746 ft 292 kts 355°
2026-04-20 01:51 35.22598 -97.47640 7583 ft 293 kts 355°
2026-04-20 01:51 35.24612 -97.47768 7400 ft 286 kts 355°
2026-04-20 01:51 35.26580 -97.47894 7232 ft 280 kts 355°
2026-04-20 01:51 35.28506 -97.48017 7071 ft 274 kts 355°
2026-04-20 01:52 35.30393 -97.48138 6890 ft 270 kts 355°
2026-04-20 01:52 35.32259 -97.48259 6693 ft 266 kts 355°
2026-04-20 01:52 35.34097 -97.48378 6477 ft 263 kts 355°
2026-04-20 01:52 35.35916 -97.48496 6271 ft 260 kts 355°
2026-04-20 01:53 35.37709 -97.48611 6069 ft 256 kts 355°
2026-04-20 01:53 35.39470 -97.48708 5949 ft 250 kts 357°
2026-04-20 01:53 35.41179 -97.48715 5876 ft 242 kts 358°
2026-04-20 01:53 35.42866 -97.48703 5689 ft 245 kts 358°
2026-04-20 01:54 35.44574 -97.48695 5421 ft 245 kts 358°
2026-04-20 01:54 35.46270 -97.48701 5181 ft 244 kts 356°
2026-04-20 01:54 35.47968 -97.48772 4937 ft 244 kts 355°
2026-04-20 01:54 35.49657 -97.48868 4727 ft 242 kts 355°
2026-04-20 01:55 35.51333 -97.48982 4520 ft 240 kts 354°
2026-04-20 01:55 35.52998 -97.49099 4323 ft 239 kts 354°
2026-04-20 01:55 35.54659 -97.49222 4129 ft 240 kts 355°
2026-04-20 01:55 35.56320 -97.49390 3994 ft 238 kts 342°
2026-04-20 01:56 35.57699 -97.50346 3989 ft 225 kts 307°
2026-04-20 01:56 35.58390 -97.52011 4002 ft 219 kts 277°
2026-04-20 01:56 35.58652 -97.53828 4004 ft 218 kts 273°
2026-04-20 01:56 35.58675 -97.55622 3966 ft 203 kts 250°
2026-04-20 01:57 35.57982 -97.57045 3764 ft 194 kts 216°
2026-04-20 01:57 35.56829 -97.57832 3600 ft 187 kts 204°
2026-04-20 01:57 35.55665 -97.58460 3345 ft 179 kts 203°
2026-04-20 01:57 35.54509 -97.58914 3078 ft 172 kts 186°
2026-04-20 01:58 35.53340 -97.58875 3030 ft 166 kts 180°
2026-04-20 01:58 35.52180 -97.58872 3007 ft 166 kts 183°
2026-04-20 01:58 35.51027 -97.58896 2989 ft 167 kts 181°
2026-04-20 01:58 35.49857 -97.58902 2996 ft 168 kts 181°
2026-04-20 01:59 35.48684 -97.58901 2896 ft 171 kts 181°
2026-04-20 01:59 35.47501 -97.58900 2693 ft 168 kts 181°
2026-04-20 01:59 35.46393 -97.58898 2516 ft 150 kts 182°
2026-04-20 01:59 35.45393 -97.58898 2307 ft 138 kts 182°
2026-04-20 02:00 35.44454 -97.58897 2103 ft 134 kts 181°
2026-04-20 02:00 35.43501 -97.58897 1946 ft 141 kts 180°
2026-04-20 02:00 35.42496 -97.58897 1737 ft 145 kts 181°
2026-04-20 02:00 35.41473 -97.58896 1519 ft 147 kts 180°
2026-04-20 02:01 35.40474 -97.58895 1340 ft 144 kts 180°
2026-04-20 02:01 35.39537 -97.58895 1290 ft 102 kts 180°
2026-04-20 02:01 35.39040 -97.58903 1293 ft 35 kts 195°
2026-04-20 02:01 35.38977 -97.58981 1293 ft 0 kts 264°
2026-04-20 02:02 35.38984 -97.59027 1293 ft 15 kts 295°
2026-04-20 02:02 35.39120 -97.59062 1290 ft 24 kts
2026-04-20 02:03 35.39287 -97.59062 1292 ft 23 kts 359°
2026-04-20 02:03 35.39431 -97.59063 1293 ft 11 kts 356°
2026-04-20 02:03 35.39473 -97.59136 1294 ft 11 kts 276°
2026-04-20 02:03 35.39446 -97.59215 1295 ft 11 kts 203°
2026-04-20 02:04 35.39386 -97.59264 1295 ft 11 kts 254°
2026-04-20 02:04 35.39385 -97.59356 1296 ft 11 kts 270°
2026-04-20 02:04 35.39384 -97.59446 1297 ft 10 kts 270°
2026-04-20 02:04 35.39383 -97.59533 1297 ft 10 kts 270°
2026-04-20 02:05 35.39384 -97.59618 1296 ft 10 kts 271°
2026-04-20 02:05 35.39394 -97.59700 1296 ft 10 kts 283°
2026-04-20 02:05 35.39439 -97.59718 1296 ft 5 kts 41°
2026-04-20 02:05 35.39459 -97.59700 1296 ft 0 kts 35°